Regional Weather Roundup
Issued by NWS

Home | Current Version | Previous Version | Text Only | Print | Product List | Glossary On
Versions: 1 2 3 4 5 6 7 8 9 10 11 12 13 14 15 16 17 18 19 20 21 22 23 24 25 26 27 28 29 30 31 32 33 34 35 36 37 38 39 40 41 42 43 44 45 46 47 48 49 50
000
ASUS45 KBOI 020710
RWRID
WEATHER ROUNDUP FOR IDAHO
NATIONAL WEATHER SERVICE BOISE ID
100 AM MDT TUE SEP 02 2014

NOTE: "FAIR" INDICATES FEW OR NO CLOUDS BELOW 12000 FEET
WITH NO SIGNIFICANT WEATHER AND/OR OBSTRUCTIONS TO VISIBILITY

IDZ012-014-020800-
SOUTHWEST IDAHO


CITY           SKY/WX    TMP DP  RH WIND       PRES   REMARKS
BOISE          CLEAR     61  34  36 SE8       29.98S
CALDWELL       CLEAR     52  36  54 NE6       29.99R
MOUNTAIN HOME  CLEAR     56  37  49 NE1       29.99S
$$

IDZ016-017-020800-
SOUTHCENTRAL IDAHO


CITY           SKY/WX    TMP DP  RH WIND       PRES   REMARKS
BURLEY         CLEAR     50  43  77 S5        30.04F
JEROME         CLEAR     52  41  66 E6        30.04S
TWIN FALLS     CLEAR     55  40  56 S12       30.04F
$$

IDZ019>023-020800-
SOUTHEAST IDAHO


CITY           SKY/WX    TMP DP  RH WIND       PRES   REMARKS
IDAHO FALLS    CLEAR     60  37  42 S9        30.06F
POCATELLO      CLEAR     50  39  66 CALM      30.07S
REXBURG        CLEAR     55  38  52 S8        30.06S
$$

IDZ006-010-011-018-031-032-020800-
CENTRAL IDAHO MOUNTAINS


CITY           SKY/WX    TMP DP  RH WIND       PRES   REMARKS
MCCALL         CLEAR     45  35  68 CALM      30.07F
HAILEY         CLEAR     48  37  66 NW10      30.10S
STANLEY          N/A     35  29  78 CALM      30.16R
SALMON         CLEAR     48  43  81 SE3       30.02S
CHALLIS        CLEAR     52  35  52 CALM      30.05R
$$

IDZ002-004-006-007-026-020800-
NORTHERN IDAHO


CITY           SKY/WX    TMP DP  RH WIND       PRES   REMARKS
LEWISTON       CLEAR     62  43  49 W5        29.92F
LOWELL           N/A     54  49  83 NW5       30.00F
COEUR D`ALENE  CLEAR     54  41  62 S3        29.93S
MULLAN PASS    PTCLDY    47  35  63 SW7       30.05F
$$


USA.gov is the U.S. government's official web portal to all federal, state and local government web resources and services.